Vertical_Velocity
0 1 0 1 0 -0 -0 -0 -0 -1 -1 -1 -0 -1 -1 -1 -1 -1 -1 -1 -1 -1 -1 -1 -1 -1 -1 -1 -1 -1 -1 -1 -1 -2 -2 -2 -2 -2 -3 -3 -3 -3 -3 -4 -5 -5 -5 -4 -4 -6 -7 -5 -4 -4 -4 -4 -4 -4 -5 -5 -4 -3 -2 0 1 0 -0 -0 -1 -2 -2 -2 -3 -3 -3 -2 -2 -1 -0 -0 -0 -1 -1 -1 -1 -1 -0 0 0 -0 -1 -0 -0 0 1 1 1 2 1 0 -0 -1 -0
-0 -0 -0 -1 -1 -1 -1 -1 -1 -0 -0 0 1 1 0 -0 -0 0 -1 -1 -1 -1 -1 -1 -1 -1 -1 -1 -1 -2 -2 -2 -2 -2 -2 -2 -2 -2 -3 -2 -2 -2 -2 -2 -3 -4 -4 -3 -6 -8 -8 -5 -4 -3 -3 -3 -3 -4 -5 -5 -5 -4 -3 -1 0 0 -0 -0 -1 -2 -2 -2 -2 -3 -2 -2 -2 -1 -1 -0 -0 -1 -1 -1 -1 -1 -1 -0 0 0 -0 -1 -1 -0 0 1 1 1 1 0 -0 -0 -0
-1 -1 -1 -1 -1 -1 -1 -0 -0 -0 1 1 1 1 0 0 0 1 -0 -0 -1 -1 -1 -2 -2 -2 -2 -2 -2 -2 -2 -2 -2 -2 -2 -2 -2 -2 -2 -2 -2 -2 -2 -2 -3 -3 -3 -2 -6 -10 -9 -7 -5 -4 -3 -2 -3 -3 -4 -5 -6 -5 -4 -2 -1 -0 -0 -0 -1 -1 -1 -2 -2 -3 -3 -3 -3 -3 -2 -1 -1 -1 -1 -1 -1 -1 -1 -1 -0 0 0 -0 -0 -0 0 0 0 0 0 0 0 -0 -0
-2 -2 -2 -2 -1 -1 -1 -0 -0 -0 0 0 0 0 -1 -1 -0 0 -0 -0 -1 -2 -2 -2 -2 -3 -2 -3 -3 -2 -2 -3 -3 -3 -2 -2 -2 -2 -2 -2 -2 -2 -2 -3 -3 -3 -2 -3 -6 -9 -8 -7 -6 -6 -4 -3 -3 -3 -3 -5 -6 -6 -5 -3 -2 -1 -0 -0 -0 -1 -0 -1 -2 -3 -4 -4 -4 -4 -3 -2 -2 -1 -0 -1 -1 -1 -2 -1 -0 0 0 0 -0 -0 0 0 0 0 0 0 0 0 0
-2 -2 -2 -2 -2 -2 -1 -1 -1 -1 -1 -2 -1 -1 -2 -2 -1 -1 -1 -1 -2 -2 -2 -2 -2 -3 -3 -3 -3 -3 -3 -3 -3 -3 -2 -2 -2 -2 -2 -2 -2 -2 -2 -3 -3 -3 -2 -5 -8 -8 -7 -6 -6 -6 -6 -5 -5 -4 -3 -4 -5 -6 -5 -4 -3 -2 -1 -0 -0 -0 -0 -0 -1 -2 -3 -4 -4 -4 -3 -2 -2 -2 -1 -1 -1 -1 -2 -1 -1 0 0 0 -0 -1 -1 -0 -0 0 0 -0 -0 -0 0
-1 -2 -2 -2 -2 -2 -2 -3 -3 -3 -3 -3 -4 -3 -4 -3 -2 -2 -1 -2 -2 -2 -2 -2 -2 -3 -3 -3 -3 -3 -4 -4 -3 -2 -2 -1 -1 -1 -2 -2 -2 -2 -2 -2 -3 -3 -2 -7 -7 -6 -5 -6 -6 -5 -5 -5 -6 -5 -4 -4 -4 -4 -5 -6 -4 -3 -1 -1 -0 0 -0 -0 -1 -1 -2 -3 -3 -2 -2 -3 -3 -3 -2 -1 -1 -1 -1 -2 -1 -0 0 0 -0 -1 -2 -1 -0 0 -0 -0 -0 -0 0
-1 -1 -2 -2 -3 -3 -3 -4 -4 -4 -4 -5 -5 -5 -5 -4 -3 -3 -2 -3 -3 -3 -2 -2 -2 -3 -3 -3 -3 -4 -4 -4 -3 -2 -1 -1 -1 -1 -2 -2 -2 -2 -2 -2 -2 -2 -2 -7 -6 -4 -3 -5 -5 -5 -5 -5 -5 -5 -5 -4 -3 -3 -3 -5 -5 -4 -2 -1 -0 -0 -0 -1 -1 -1 -1 -2 -1 -1 -1 -2 -3 -4 -4 -3 -2 -1 -1 -1 -1 -1 -0 0 1 0 -0 -2 -1 -1 -0 -0 -0 -0 -0
-2 -2 -2 -3 -3 -4 -4 -4 -4 -4 -4 -5 -5 -5 -4 -4 -3 -3 -3 -3 -3 -3 -3 -3 -3 -3 -3 -3 -3 -4 -5 -3 -2 -2 -1 -1 -1 -1 -1 -2 -2 -2 -2 -3 -3 -3 -2 -5 -5 -3 -3 -4 -4 -4 -4 -4 -4 -4 -5 -5 -4 -3 -2 -3 -4 -4 -3 -2 -1 -1 -1 -1 -1 -1 -1 -1 -0 -1 -2 -0 -1 -2 -5 -4 -3 -2 -0 -1 -1 -1 -1 0 0 0 -0 -1 -2 -2 -1 -0 -1 -1 -0
-3 -3 -3 -3 -3 -4 -4 -4 -4 -4 -3 -4 -4 -4 -4 -4 -3 -3 -3 -4 -4 -3 -3 -4 -4 -4 -4 -3 -3 -4 -4 -2 -1 -1 -1 -1 -1 -2 -2 -1 -2 -2 -3 -3 -3 -3 -2 -4 -3 -3 -3 -4 -4 -4 -4 -4 -4 -4 -4 -4 -4 -3 -2 -2 -3 -3 -3 -2 -1 -1 -1 -1 -0 -0 -1 -1 -1 -1 -2 -0 0 -0 -3 -4 -4 -3 -1 -1 -1 -1 -1 -0 0 0 0 -0 -1 -2 -1 -1 -0 -0 1
-3 -4 -4 -3 -3 -4 -4 -4 -4 -4 -4 -4 -4 -4 -4 -3 -3 -3 -4 -4 -4 -4 -3 -4 -4 -4 -4 -4 -4 -4 -4 -2 -1 -2 -2 -1 -2 -2 -2 -2 -2 -2 -3 -3 -3 -2 -1 -2 -2 -2 -2 -4 -4 -4 -5 -4 -3 -3 -4 -4 -4 -3 -2 -2 -2 -2 -2 -2 -2 -1 -1 -0 -0 -0 -0 -2 -1 -1 -1 -2 -1 -0 -1 -4 -4 -3 -2 -2 -1 -1 -2 -1 -0 0 0 -0 -1 -1 -2 -1 -1 -0 1
-3 -4 -4 -4 -4 -4 -4 -4 -4 -5 -4 -4 -4 -4 -4 -4 -3 -3 -4 -4 -4 -4 -3 -4 -4 -5 -4 -4 -4 -4 -3 -2 -2 -2 -1 -1 -1 -2 -2 -2 -2 -2 -3 -3 -2 -1 -1 -1 -2 -2 -3 -4 -4 -4 -5 -5 -4 -3 -3 -5 -5 -4 -3 -2 -2 -2 -2 -2 -2 -1 -1 -0 -0 -0 -1 -1 -1 -1 -1 -2 -2 -1 0 -2 -4 -4 -3 -3 -2 -1 -2 -2 -1 -0 0 0 -0 -1 -1 -2 -1 -0 0
-4 -4 -4 -4 -5 -5 -5 -5 -5 -5 -5 -5 -5 -5 -4 -4 -4 -4 -3 -4 -4 -4 -4 -4 -4 -5 -4 -4 -5 -4 -3 -3 -2 -2 -2 -2 -1 -2 -2 -2 -3 -3 -3 -3 -2 -2 -1 -2 -2 -2 -3 -4 -4 -5 -5 -6 -6 -4 -2 -4 -5 -4 -4 -3 -2 -3 -3 -3 -3 -3 -1 -1 -0 -0 -0 -1 -0 -0 -0 -1 -1 -1 0 0 -1 -3 -4 -4 -3 -2 -1 -1 -1 -1 -1 -0 0 -0 -0 -1 -1 -1 -1
-4 -4 -5 -6 -6 -6 -6 -6 -6 -6 -6 -6 -6 -6 -5 -5 -5 -4 -4 -4 -4 -4 -4 -4 -4 -5 -5 -5 -5 -5 -3 -3 -3 -2 -2 -2 -2 -2 -2 -2 -3 -3 -3 -3 -3 -3 -3 -3 -3 -3 -3 -4 -4 -4 -5 -7 -7 -6 -4 -4 -5 -5 -5 -4 -3 -3 -3 -4 -5 -4 -3 -2 -1 -0 -0 -0 -1 -0 0 1 1 1 1 2 2 0 -4 -4 -4 -3 -2 -1 -1 -1 -1 -1 -0 -0 -0 -0 -1 -1 -2
-5 -6 -6 -6 -7 -7 -7 -7 -6 -7 -7 -7 -7 -7 -6 -6 -6 -6 -6 -5 -5 -4 -4 -4 -4 -4 -5 -6 -6 -5 -4 -3 -3 -2 -2 -2 -2 -2 -2 -2 -2 -3 -3 -4 -4 -4 -4 -4 -4 -4 -3 -4 -4 -5 -4 -6 -7 -7 -6 -5 -5 -5 -6 -6 -5 -4 -3 -3 -4 -5 -5 -3 -2 -1 -0 -1 -0 0 1 1 2 2 3 4 4 3 -1 -4 -4 -4 -3 -2 -1 -1 -2 -1 -1 -1 -0 -0 -0 -0 -1
-6 -6 -7 -7 -7 -7 -7 -7 -7 -8 -8 -8 -8 -8 -7 -7 -7 -7 -7 -6 -6 -5 -5 -5 -4 -4 -4 -5 -6 -6 -5 -4 -3 -2 -2 -2 -2 -2 -2 -2 -2 -3 -4 -4 -5 -5 -5 -4 -4 -4 -4 -3 -4 -5 -5 -6 -6 -6 -5 -5 -5 -5 -7 -7 -7 -5 -4 -3 -3 -4 -5 -5 -4 -2 -1 -0 0 0 0 1 1 1 2 3 3 3 3 -1 -4 -5 -3 -2 -2 -2 -1 -2 -2 -1 -1 -0 0 0 0
-7 -7 -7 -7 -7 -7 -8 -8 -8 -9 -8 -8 -8 -8 -8 -7 -7 -7 -6 -6 -6 -6 -5 -5 -5 -4 -4 -5 -6 -6 -6 -5 -4 -3 -2 -3 -3 -3 -3 -3 -3 -3 -4 -5 -5 -5 -6 -5 -5 -4 -4 -3 -3 -4 -5 -6 -6 -5 -4 -4 -5 -5 -6 -6 -6 -6 -5 -4 -3 -2 -2 -3 -4 -4 -2 -0 0 1 -0 -1 -1 -1 -0 1 0 0 1 -1 -3 -4 -3 -2 -1 -1 -0 -1 -1 -1 -1 -0 0 0 0
-7 -7 -7 -7 -8 -8 -8 -9 -9 -9 -9 -8 -8 -7 -7 -6 -6 -6 -5 -5 -6 -6 -5 -5 -5 -4 -4 -4 -5 -6 -7 -7 -7 -6 -5 -5 -4 -4 -4 -4 -4 -4 -4 -5 -5 -5 -6 -6 -5 -5 -5 -4 -3 -4 -5 -6 -5 -5 -4 -4 -5 -5 -5 -5 -5 -6 -6 -5 -4 -2 -0 -0 -1 -3 -3 -1 0 1 1 0 -0 -0 -0 -0 -1 -1 -1 -1 -2 -3 -3 -2 -1 -1 -1 -1 -1 -1 -1 -1 -0 0 0
-7 -7 -7 -8 -8 -8 -9 -9 -9 -9 -8 -7 -7 -7 -6 -5 -5 -5 -5 -5 -5 -5 -5 -5 -4 -4 -4 -4 -4 -5 -7 -8 -8 -9 -9 -8 -7 -7 -6 -6 -6 -6 -6 -5 -5 -5 -5 -5 -5 -5 -5 -4 -3 -3 -5 -5 -5 -4 -4 -4 -5 -5 -5 -4 -3 -4 -5 -5 -5 -4 -2 -0 1 1 -0 1 1 2 2 2 3 4 5 4 2 1 -0 -0 -0 -1 -2 -2 -1 -1 -1 -1 -1 -1 -1 -1 -0 -0 -0
-7 -7 -7 -8 -8 -8 -9 -8 -8 -8 -8 -7 -7 -6 -6 -5 -5 -5 -5 -5 -4 -4 -4 -4 -4 -4 -4 -4 -5 -6 -7 -7 -8 -9 -10 -10 -9 -9 -9 -9 -9 -8 -7 -7 -6 -6 -5 -5 -5 -5 -5 -5 -4 -3 -4 -5 -4 -3 -4 -5 -5 -5 -5 -4 -3 -4 -4 -5 -6 -5 -4 -2 -1 0 1 1 2 3 3 3 3 5 6 6 6 5 3 1 -0 -1 -1 -2 -2 -1 -1 -1 -1 -1 -1 -0 -0 -0 -1
-7 -7 -7 -7 -8 -8 -8 -7 -7 -7 -7 -7 -7 -7 -6 -6 -6 -6 -5 -5 -4 -4 -4 -4 -4 -4 -5 -5 -6 -7 -7 -7 -7 -8 -9 -9 -9 -9 -9 -10 -10 -9 -8 -8 -8 -7 -6 -6 -6 -5 -4 -5 -5 -4 -4 -4 -4 -3 -4 -5 -5 -5 -5 -5 -4 -4 -5 -5 -6 -6 -6 -5 -3 -2 -1 0 1 1 1 1 1 1 1 3 4 5 4 2 -0 -1 -1 -2 -3 -2 -1 -1 -1 -2 -1 -0 -0 -0 -1
-7 -7 -7 -7 -7 -7 -6 -6 -6 -6 -6 -6 -6 -6 -6 -7 -7 -6 -5 -5 -4 -5 -4 -5 -5 -5 -5 -5 -6 -6 -7 -7 -6 -6 -7 -8 -8 -8 -8 -8 -9 -9 -7 -8 -8 -8 -7 -7 -7 -6 -4 -5 -5 -5 -5 -4 -3 -3 -3 -4 -5 -5 -6 -6 -5 -5 -5 -5 -5 -5 -6 -6 -5 -4 -4 -3 -2 -1 -1 -1 -1 -2 -3 -2 0 2 3 1 -1 -2 -2 -2 -2 -2 -1 -0 -1 -1 -1 -1 -1 -1 -1
-7 -7 -7 -6 -6 -6 -5 -5 -5 -4 -5 -5 -4 -4 -5 -5 -5 -5 -5 -5 -5 -5 -5 -5 -5 -6 -6 -5 -5 -5 -5 -6 -6 -6 -5 -7 -8 -7 -6 -6 -7 -8 -7 -7 -7 -8 -7 -7 -7 -7 -5 -5 -6 -6 -6 -5 -3 -3 -3 -4 -4 -5 -6 -7 -6 -6 -6 -5 -5 -6 -6 -7 -7 -6 -5 -5 -5 -5 -4 -3 -3 -3 -4 -3 -1 -0 1 -0 -1 -1 -2 -1 -1 -1 -1 -1 -1 -1 -1 -1 -0 -1 -1
-6 -6 -6 -6 -5 -5 -5 -4 -4 -4 -3 -3 -3 -3 -3 -3 -3 -4 -4 -4 -5 -5 -5 -4 -4 -4 -5 -4 -4 -4 -3 -3 -5 -6 -5 -4 -5 -6 -6 -5 -5 -6 -7 -6 -6 -6 -6 -6 -6 -7 -6 -5 -6 -7 -7 -5 -4 -3 -3 -3 -4 -5 -6 -6 -7 -6 -6 -6 -6 -6 -7 -8 -9 -8 -6 -5 -5 -5 -6 -6 -6 -5 -5 -4 -3 -1 -1 -1 -0 0 1 1 1 1 -1 -2 -2 -1 -1 -0 -0 -0 -1
-5 -5 -5 -5 -4 -4 -4 -3 -3 -3 -3 -3 -3 -3 -2 -2 -2 -2 -3 -3 -3 -4 -4 -4 -4 -3 -3 -3 -3 -3 -3 -1 -1 -3 -5 -4 -4 -4 -6 -5 -4 -5 -6 -6 -5 -5 -5 -5 -6 -6 -6 -5 -6 -7 -7 -6 -5 -4 -3 -3 -3 -4 -5 -6 -6 -6 -6 -6 -6 -6 -6 -7 -8 -8 -7 -5 -4 -4 -5 -6 -6 -6 -5 -4 -3 -3 -2 -1 1 3 4 4 3 2 0 -2 -2 -1 -0 -1 -1 -0 0
-4 -4 -4 -4 -3 -3 -3 -3 -3 -3 -3 -3 -3 -3 -2 -2 -2 -1 -2 -3 -3 -3 -2 -3 -3 -3 -3 -2 -2 -2 -3 -1 -0 -0 -2 -4 -4 -3 -4 -5 -5 -4 -5 -5 -5 -5 -5 -4 -5 -6 -7 -7 -7 -8 -8 -7 -6 -5 -4 -4 -3 -4 -4 -5 -5 -6 -6 -5 -5 -6 -5 -5 -5 -6 -7 -6 -5 -4 -4 -5 -5 -5 -4 -3 -2 -3 -3 -2 -1 2 4 4 4 3 2 1 -0 -1 -0 -1 -1 -1 0
-4 -4 -4 -3 -3 -2 -2 -3 -3 -3 -3 -3 -3 -3 -2 -3 -3 -3 -1 -2 -2 -2 -2 -2 -2 -2 -2 -2 -2 -1 -2 -2 -2 -1 -1 -2 -3 -4 -3 -4 -4 -5 -4 -5 -6 -6 -5 -5 -5 -5 -6 -7 -8 -9 -10 -9 -7 -6 -5 -4 -4 -4 -4 -4 -4 -5 -6 -5 -5 -5 -4 -4 -4 -4 -5 -5 -4 -3 -3 -4 -5 -6 -5 -4 -4 -3 -4 -3 -2 -1 1 2 2 2 1 1 0 -1 -1 -0 -1 -1 -0
-3 -3 -3 -2 -2 -2 -2 -2 -3 -3 -3 -3 -3 -3 -3 -2 -3 -3 -3 -2 -2 -2 -2 -2 -2 -2 -2 -3 -3 -2 -2 -3 -3 -3 -2 -2 -3 -4 -4 -4 -4 -5 -5 -5 -6 -6 -6 -6 -5 -5 -5 -6 -7 -9 -10 -10 -9 -7 -5 -5 -4 -4 -4 -4 -4 -4 -5 -5 -4 -4 -5 -4 -4 -4 -4 -3 -3 -2 -1 -3 -5 -6 -5 -4 -4 -4 -4 -4 -3 -2 -1 0 -0 -1 -1 -0 -0 -1 -2 -1 -1 -1 -1
-3 -3 -3 -2 -1 -1 -2 -2 -2 -2 -3 -2 -2 -3 -4 -3 -2 -2 -3 -3 -3 -2 -2 -1 -2 -2 -2 -2 -3 -3 -4 -4 -3 -2 -3 -2 -3 -3 -5 -4 -4 -5 -5 -5 -6 -6 -6 -6 -6 -6 -6 -6 -6 -8 -9 -11 -10 -8 -6 -5 -5 -4 -4 -4 -4 -4 -4 -4 -3 -3 -4 -4 -4 -4 -3 -4 -4 -3 -2 -1 -1 -3 -5 -4 -2 -2 -3 -3 -3 -2 -1 -0 -2 -3 -3 -1 -0 -0 -1 -2 -2 -1 -2
-2 -2 -2 -2 -1 -1 -1 -2 -2 -2 -2 -2 -2 -2 -2 -4 -3 -2 -1 -2 -3 -3 -3 -3 -2 -2 -2 -2 -2 -3 -4 -5 -4 -2 -2 -2 -2 -3 -4 -4 -5 -5 -6 -6 -6 -7 -8 -7 -7 -7 -7 -7 -6 -6 -8 -10 -11 -9 -7 -6 -5 -5 -5 -5 -4 -4 -4 -3 -3 -3 -4 -4 -3 -3 -3 -3 -3 -3 -2 -1 -0 -1 -4 -4 -3 -2 -1 -1 -1 -1 -1 -0 -1 -2 -2 -1 -0 -1 -2 -3 -2 -2 -2
-2 -2 -1 -1 -2 -2 -1 -1 -2 -2 -2 -2 -2 -2 -1 -2 -2 -3 -3 -2 -1 -2 -3 -3 -3 -2 -2 -2 -2 -3 -3 -4 -5 -4 -3 -2 -2 -3 -4 -5 -5 -5 -6 -6 -7 -7 -9 -8 -8 -8 -9 -8 -7 -6 -7 -9 -10 -10 -8 -7 -6 -6 -5 -5 -5 -4 -4 -3 -3 -3 -4 -3 -2 -3 -3 -3 -2 -2 -1 -1 0 0 -1 -2 -2 -2 -0 0 -0 -0 0 1 2 2 2 2 2 2 1 -1 -2 -2 -1
-1 -2 -2 -1 -1 -1 -2 -1 -1 -1 -2 -2 -2 -2 -2 -1 -1 -1 -3 -3 -3 -2 -2 -2 -3 -3 -2 -2 -3 -4 -3 -3 -4 -5 -5 -4 -3 -3 -3 -4 -5 -5 -6 -6 -6 -7 -8 -8 -8 -8 -8 -8 -7 -7 -7 -8 -9 -10 -9 -8 -7 -7 -6 -5 -5 -4 -3 -4 -4 -3 -2 -2 -2 -3 -3 -4 -3 -3 -2 -2 -1 -1 -1 -1 -1 -1 -1 -1 -1 -1 0 1 3 4 4 4 4 4 5 3 1 -0 2
-2 -1 -1 -1 -1 -1 -2 -1 -1 -1 -1 -2 -2 -1 -1 -2 -2 -1 0 -2 -3 -3 -2 -2 -3 -4 -4 -3 -3 -3 -4 -4 -4 -5 -5 -6 -5 -4 -3 -4 -5 -5 -6 -6 -6 -6 -6 -7 -7 -7 -7 -7 -7 -7 -7 -8 -9 -10 -11 -10 -8 -7 -6 -6 -5 -4 -3 -4 -3 -3 -3 -3 -3 -3 -3 -4 -4 -4 -4 -3 -3 -3 -3 -3 -3 -3 -2 -2 -2 -2 -2 -1 0 2 3 2 2 3 3 3 1 1 3
-1 -1 -1 -1 -1 -1 -1 -2 -2 -1 -0 -1 -1 -1 -0 -0 -1 -2 -1 -0 -1 -2 -3 -2 -2 -3 -4 -4 -2 -2 -3 -3 -4 -5 -5 -6 -6 -6 -4 -5 -5 -5 -5 -6 -6 -6 -5 -6 -7 -7 -7 -7 -6 -6 -7 -7 -8 -9 -11 -10 -9 -8 -7 -6 -5 -5 -4 -4 -4 -4 -3 -3 -3 -3 -3 -3 -4 -4 -4 -4 -4 -5 -4 -4 -3 -2 -1 -1 -1 -2 -2 -2 0 2 1 1 1 1 1 1 -1 -1 1
-0 -0 -1 -1 -1 -1 -1 -1 -1 -1 -1 -1 -1 -1 -1 -0 -0 -2 -3 -1 -0 -1 -2 -2 -2 -2 -4 -5 -4 -2 -2 -3 -4 -5 -6 -5 -5 -6 -6 -5 -6 -6 -5 -5 -5 -5 -5 -5 -6 -7 -7 -7 -6 -6 -6 -7 -8 -9 -10 -10 -10 -9 -8 -7 -6 -5 -5 -5 -6 -6 -5 -3 -3 -2 -2 -3 -3 -3 -4 -4 -4 -4 -4 -4 -3 -2 0 1 2 3 4 5 5 4 3 3 2 2 1 2 0 -1 0
-1 -0 -0 -1 -1 -1 -2 -1 -1 -1 -1 -1 -1 -1 -2 -2 -1 -1 -2 -3 -2 -1 -1 -2 -2 -2 -3 -4 -4 -4 -3 -3 -3 -4 -6 -5 -5 -5 -6 -5 -5 -5 -5 -5 -5 -5 -5 -5 -5 -6 -6 -7 -7 -7 -6 -7 -7 -8 -9 -9 -9 -9 -9 -8 -7 -6 -5 -5 -6 -6 -6 -5 -4 -2 -1 -2 -2 -2 -3 -4 -5 -5 -6 -6 -5 -4 -2 0 3 6 7 8 7 6 7 8 7 5 5 6 3 -2 -3
-1 -1 -0 -1 -1 -0 -1 -1 -1 -1 -0 -1 -1 -1 -1 -3 -2 -2 -1 -3 -3 -3 -1 -2 -3 -3 -3 -3 -4 -5 -5 -5 -5 -4 -5 -6 -5 -5 -5 -5 -5 -4 -5 -5 -6 -6 -5 -5 -5 -6 -6 -6 -7 -7 -6 -6 -7 -7 -8 -9 -9 -9 -8 -9 -8 -7 -6 -5 -5 -6 -6 -5 -4 -3 -1 -1 -1 -1 -2 -3 -4 -4 -5 -6 -6 -6 -5 -2 1 3 5 8 10 11 11 8 6 6 7 6 2 -3 -7
-0 -0 -0 -1 -1 -1 -0 -1 -1 -1 -0 -1 -1 -2 -1 -2 -3 -4 -2 -2 -2 -3 -3 -3 -4 -4 -3 -3 -4 -5 -6 -6 -7 -7 -6 -6 -6 -6 -5 -5 -4 -4 -4 -5 -6 -6 -7 -6 -6 -5 -5 -5 -6 -6 -6 -6 -6 -6 -6 -7 -7 -7 -6 -7 -8 -8 -7 -6 -5 -6 -7 -6 -4 -2 0 1 2 2 1 0 -2 -3 -4 -4 -5 -6 -6 -3 -1 1 4 8 11 12 10 6 7 9 8 8 7 5 -2
-0 -0 -0 -0 -1 -1 -1 -1 -1 -1 -1 -0 -1 -2 -2 -1 -2 -4 -4 -2 -2 -2 -2 -3 -4 -4 -4 -3 -3 -4 -5 -5 -6 -8 -9 -8 -7 -7 -6 -5 -4 -5 -5 -5 -5 -6 -7 -7 -6 -5 -5 -5 -5 -6 -6 -6 -6 -6 -5 -5 -5 -5 -4 -5 -5 -6 -7 -7 -7 -7 -7 -6 -3 -1 1 2 3 3 2 1 -1 -3 -4 -5 -5 -5 -6 -4 -2 1 5 10 11 11 8 9 11 12 9 11 15 15 5
-0 -0 -0 -0 -1 -1 -2 -2 -1 -1 -1 -1 -1 -1 -3 -2 -1 -2 -4 -3 -3 -2 -3 -3 -3 -3 -4 -4 -3 -2 -4 -4 -5 -6 -8 -8 -8 -7 -7 -5 -4 -4 -5 -5 -5 -6 -6 -6 -6 -5 -5 -5 -5 -6 -7 -6 -6 -5 -3 -4 -4 -4 -3 -4 -4 -5 -6 -7 -8 -8 -8 -6 -3 -1 -0 0 1 2 2 3 3 1 -3 -5 -5 -5 -5 -4 -2 2 7 11 11 9 6 8 10 11 9 14 19 18 6
-0 -0 -0 -0 -1 -1 -1 -2 -2 -1 -1 -1 -1 -1 -2 -3 -2 -2 -2 -3 -3 -2 -2 -3 -4 -3 -2 -3 -3 -3 -2 -4 -4 -5 -6 -8 -8 -7 -7 -6 -5 -4 -5 -5 -5 -6 -6 -6 -5 -5 -5 -5 -6 -6 -7 -6 -5 -4 -3 -3 -3 -3 -3 -3 -3 -3 -3 -3 -4 -6 -8 -7 -5 -3 -3 -2 -1 -0 1 5 8 9 6 -2 -6 -7 -5 -3 1 5 7 7 7 8 7 6 8 10 10 15 19 17 5
0 -0 -0 -0 -0 -1 -1 -2 -2 -2 -1 -1 -1 -1 -1 -2 -3 -3 -2 -2 -2 -3 -3 -2 -4 -5 -5 -3 -3 -4 -3 -3 -4 -5 -6 -7 -7 -7 -7 -6 -5 -5 -4 -4 -5 -5 -6 -5 -5 -5 -6 -6 -6 -6 -6 -5 -4 -3 -2 -3 -3 -3 -3 -2 -2 -1 -0 -0 -1 -3 -7 -7 -5 -3 -3 -2 -1 0 2 6 10 14 14 6 -1 -6 -5 -1 6 10 7 3 5 8 10 10 9 9 7 10 12 11 6
0 0 0 -0 -0 -1 -1 -1 -2 -2 -2 -2 -2 -2 -1 -2 -2 -3 -3 -2 -2 -2 -4 -3 -2 -2 -5 -5 -5 -4 -5 -4 -5 -6 -7 -7 -8 -8 -7 -7 -6 -5 -4 -4 -4 -4 -5 -4 -4 -4 -5 -6 -6 -6 -6 -4 -3 -3 -3 -4 -4 -4 -4 -2 -2 -1 -0 0 0 -1 -4 -7 -6 -4 -2 -1 1 2 3 4 6 9 12 11 5 -1 -4 2 8 11 8 4 5 9 14 13 9 4 1 2 3 4 3
-0 -0 0 0 -0 -0 -1 -1 -2 -2 -2 -2 -2 -2 -2 -2 -2 -2 -2 -3 -3 -2 -2 -3 -2 -1 -1 -3 -4 -5 -6 -5 -5 -6 -7 -8 -9 -9 -8 -8 -7 -6 -5 -3 -3 -3 -4 -4 -3 -3 -3 -5 -6 -7 -6 -5 -4 -3 -3 -4 -5 -5 -4 -3 -2 -1 -0 1 1 1 -2 -6 -7 -5 -3 -1 1 1 2 0 -0 0 3 6 5 3 1 5 7 9 9 9 11 13 14 10 4 -2 -4 -4 -3 -3 -2
-0 -0 -0 -0 -0 -0 -0 -1 -2 -2 -2 -2 -2 -2 -2 -2 -1 -1 -2 -3 -4 -3 -1 -2 -3 -3 -1 -1 -2 -3 -4 -5 -5 -6 -6 -7 -9 -11 -10 -9 -8 -7 -6 -4 -3 -3 -3 -3 -3 -3 -3 -4 -5 -7 -7 -5 -4 -3 -3 -4 -4 -5 -5 -3 -2 -1 -0 1 2 2 0 -3 -6 -7 -6 -3 -1 -0 0 -2 -3 -2 1 5 7 8 9 13 14 13 15 15 15 13 9 2 -3 -6 -6 -7 -7 -6 -4
-0 -0 -0 -0 -0 -0 -0 -1 -2 -2 -2 -2 -2 -2 -2 -2 -2 -1 -1 -2 -4 -6 -5 -3 -3 -4 -3 -1 -0 -0 -1 -3 -4 -5 -6 -7 -8 -9 -11 -10 -9 -8 -7 -6 -4 -3 -2 -2 -2 -3 -4 -4 -4 -4 -5 -4 -4 -4 -4 -4 -4 -4 -4 -4 -3 -1 -0 1 2 2 1 -1 -3 -6 -7 -6 -5 -3 -2 -2 -2 -0 3 11 14 14 15 20 21 20 16 12 8 5 2 -2 -5 -6 -6 -6 -4 -3 -3
-0 -0 -0 -1 -1 -0 -0 -1 -2 -2 -3 -3 -3 -3 -2 -2 -2 -2 -2 -1 -2 -4 -7 -5 -4 -4 -4 -1 1 1 1 -0 -2 -3 -4 -6 -7 -8 -9 -10 -9 -7 -6 -7 -6 -4 -3 -2 -2 -2 -3 -3 -2 -2 -2 -2 -3 -4 -5 -6 -5 -4 -4 -5 -3 -1 -1 0 1 1 1 -0 -1 -3 -5 -5 -5 -5 -4 -2 -1 1 3 7 11 14 16 18 17 13 7 3 1 -1 -1 -3 -3 -3 -1 0 1 1 -2
-0 -0 -0 -1 -1 -1 -1 -1 -2 -2 -3 -3 -3 -3 -4 -3 -3 -3 -4 -2 -1 -1 -3 -4 -4 -3 -4 -3 0 2 2 1 -1 -3 -4 -5 -6 -7 -6 -8 -9 -7 -4 -5 -6 -5 -4 -3 -2 -2 -2 -1 -1 -1 -0 -2 -3 -5 -5 -7 -6 -5 -4 -4 -4 -2 -1 -0 0 1 1 -1 -2 -2 -2 -2 -3 -3 -4 -3 -2 -0 1 1 3 6 9 7 4 2 1 1 1 1 1 0 1 2 3 2 1 2 3
-1 -1 -1 -1 -1 -1 -1 -2 -2 -2 -2 -2 -2 -3 -4 -4 -3 -3 -3 -4 -3 -2 -2 -4 -4 -3 -3 -5 -4 -1 1 -0 -1 -2 -5 -6 -7 -7 -6 -7 -10 -11 -8 -5 -4 -4 -3 -2 -2 -2 -0 0 -0 -0 -0 -1 -3 -4 -4 -5 -6 -6 -5 -4 -4 -3 -1 -1 -0 -0 1 -1 -2 -2 -1 -0 -0 -1 -3 -4 -4 -3 -1 -0 1 2 1 -1 -3 -3 -0 2 4 4 3 2 2 3 3 3 4 6 10
-1 -1 -2 -2 -1 -1 -1 -1 -2 -3 -3 -3 -2 -2 -2 -3 -3 -2 -1 -3 -4 -5 -3 -4 -6 -6 -4 -5 -6 -5 -2 -2 -2 -2 -2 -6 -10 -14 -16 -14 -14 -15 -15 -8 -4 -2 -3 -2 -1 0 2 2 1 -1 -1 -1 -2 -3 -4 -4 -6 -8 -7 -5 -4 -3 -2 -1 -1 -0 1 1 0 0 0 1 1 0 -1 -2 -4 -5 -4 -0 2 3 2 -0 -3 -4 -2 0 2 2 -0 -2 -3 -2 -2 -1 1 4 7
-1 -1 -1 -1 -2 -2 -1 -1 -1 -2 -3 -3 -4 -3 -2 -2 -2 -2 -1 -1 -2 -3 -3 -1 -2 -5 -7 -5 -5 -5 -3 -2 -3 -4 -3 -2 -5 -10 -17 -21 -21 -19 -17 -13 -6 -2 -1 -2 1 4 7 4 1 -1 -2 -1 -2 -3 -4 -3 -5 -7 -8 -6 -5 -4 -4 -3 -1 1 3 3 3 3 1 1 2 1 1 -0 -2 -3 -3 -2 -1 0 1 0 -1 -3 -4 -4 -4 -4 -5 -7 -7 -7 -6 -3 -1 0 2
-2 -2 -1 -1 -1 -2 -2 -2 -2 -2 -2 -3 -3 -4 -4 -3 -2 -2 -3 -2 -1 -1 -2 -1 -0 -0 -4 -4 -4 -3 -2 -0 -1 -2 -3 -3 -1 1 -0 -9 -16 -22 -25 -27 -21 -12 -2 -0 5 9 9 3 0 -1 -2 -1 -1 -3 -4 -3 -4 -5 -6 -6 -6 -6 -5 -3 -1 2 5 5 5 5 3 2 2 2 2 1 -0 -2 -3 -3 -4 -3 -2 -2 -2 -3 -3 -4 -5 -6 -7 -7 -6 -5 -4 -3 -1 -0 1
-1 -2 -2 -2 -1 -1 -2 -2 -2 -2 -2 -2 -2 -3 -4 -4 -3 -3 -3 -4 -4 -3 -2 -3 -3 -1 0 -3 -4 -3 -1 0 1 2 2 -1 -2 -1 2 0 -5 -14 -24 -34 -39 -36 -18 -13 -7 1 10 3 -1 -2 -1 -1 -2 -3 -3 -3 -4 -4 -5 -5 -5 -5 -4 -2 0 3 5 5 5 5 4 3 3 3 2 1 -0 -2 -3 -3 -3 -2 -1 -0 -0 -0 -1 -2 -3 -5 -5 -5 -4 -3 -3 -3 -3 -1 1
-1 -1 -2 -2 -2 -2 -2 -2 -2 -3 -3 -3 -3 -3 -3 -3 -3 -3 -3 -4 -3 -2 -1 -1 -2 -3 -3 -5 -7 -7 -2 1 3 3 4 2 -2 -6 -6 -1 1 0 -3 -7 -25 -40 -35 -27 -31 -30 -8 3 3 -1 -1 -1 -2 -4 -2 -3 -4 -5 -4 -3 -3 -2 -2 -2 -1 1 2 3 4 5 5 4 3 2 1 0 0 -0 -1 -1 -1 0 1 2 1 1 0 -0 -1 -3 -4 -3 -2 -2 -3 -4 -3 -2 -0
-1 -1 -1 -1 -2 -2 -2 -2 -2 -2 -3 -4 -4 -4 -4 -3 -4 -3 -3 -2 -1 1 2 3 2 -0 -3 -4 -7 -9 -8 -0 4 5 4 3 4 2 -3 -2 -2 -1 -1 8 2 -13 -32 -25 -29 -35 -36 -5 4 2 -2 1 -1 -3 -2 -2 -2 -3 -2 -2 -2 -2 -2 -1 -0 -0 -1 0 2 4 5 4 3 2 1 1 2 2 3 2 2 3 3 3 1 -0 -2 -3 -2 -3 -4 -5 -5 -4 -3 -2 -2 -3 -3
-1 -1 -2 -1 -1 -2 -2 -2 -2 -2 -2 -3 -4 -4 -4 -4 -3 -3 -3 -3 -2 -1 0 2 3 3 1 -1 -3 -7 -11 -6 0 5 5 5 7 9 8 0 -6 -9 -10 -4 2 1 -13 -18 -23 -30 -42 -14 -3 -3 -9 -3 -2 -3 -2 -0 0 -0 -2 -2 -3 -4 -5 -3 -1 0 -0 -1 -1 1 4 4 3 3 3 3 3 4 5 5 4 3 2 2 1 -0 -3 -4 -4 -3 -3 -4 -5 -5 -4 -3 -4 -6 -7
-1 -1 -1 -2 -2 -2 -2 -2 -2 -3 -3 -3 -3 -3 -4 -3 -3 -3 -3 -3 -3 -3 -2 -1 2 4 4 2 -1 -5 -9 -10 -5 2 6 6 6 7 9 10 9 5 -2 -5 -6 -7 -8 -6 -12 -26 -49 -21 -3 1 -12 -6 -2 -1 -2 -1 1 1 -0 -2 -3 -4 -7 -7 -5 -2 -0 -0 -1 -0 2 3 3 3 4 4 4 4 4 3 2 1 -1 -1 -1 -2 -3 -5 -6 -7 -5 -3 -3 -5 -5 -6 -6 -5 -4
-1 -1 -1 -1 -2 -2 -2 -2 -2 -2 -3 -3 -3 -3 -4 -4 -3 -3 -2 -2 -2 -1 -0 -0 -0 2 5 4 1 -3 -7 -11 -9 -3 5 6 6 6 6 8 11 15 18 13 3 -7 -16 -5 3 -6 -45 -42 -15 9 6 -1 -1 1 2 -0 0 2 3 1 -1 -3 -5 -6 -6 -5 -3 0 1 1 1 2 2 2 2 3 3 3 3 1 -1 -4 -6 -6 -5 -4 -4 -5 -7 -7 -7 -4 -3 -3 -4 -2 -0 1 1
-1 -1 -1 -1 -1 -2 -2 -2 -2 -2 -2 -3 -3 -3 -3 -4 -4 -3 -2 -2 -1 0 2 1 1 1 3 6 4 1 -4 -8 -10 -9 -4 1 4 6 6 6 5 7 12 14 13 8 -2 -4 3 3 -18 -45 -46 -24 17 10 2 -4 -2 -0 1 3 3 2 -0 -3 -3 -3 -4 -5 -6 -1 2 2 1 2 2 2 1 1 2 2 1 -1 -3 -5 -5 -4 -3 -2 -3 -4 -5 -5 -5 -5 -3 -2 -2 -2 -2 -1 0
-1 -1 -1 -1 -1 -2 -2 -2 -3 -3 -3 -3 -3 -3 -2 -3 -3 -3 -3 -3 -3 -1 1 2 3 3 3 5 6 3 -1 -4 -6 -7 -8 -8 -5 0 6 6 6 6 7 6 8 11 13 10 4 -0 3 -14 -42 -59 -39 -2 8 4 -3 -3 1 4 4 2 0 -2 -3 -3 -2 -4 -7 -5 -1 2 3 2 2 1 1 1 1 1 -0 -2 -2 -2 -1 1 2 2 1 -1 -3 -4 -5 -5 -3 -2 -1 5 10 11 9
-1 -1 -1 -1 -2 -2 -2 -2 -2 -2 -3 -3 -3 -3 -3 -2 -2 -2 -2 -3 -3 -2 -1 0 1 2 3 4 6 5 1 -3 -3 -2 0 -6 -10 -9 2 5 4 3 3 3 4 7 10 11 9 9 13 10 -7 -33 -61 -43 -17 4 7 6 5 4 4 3 1 0 -2 -3 -2 -2 -4 -6 -4 -1 2 2 2 1 1 2 3 2 1 -0 0 2 5 9 11 11 7 2 -1 -2 -3 -4 -2 1 6 13 17 18 16
-1 -1 -1 -1 -1 -2 -2 -2 -2 -2 -2 -2 -2 -3 -3 -3 -2 -2 -1 -1 -1 -0 -0 -1 -0 0 2 4 6 6 4 -1 -3 -1 4 2 -5 -10 -6 -1 0 -1 -0 1 3 4 5 5 8 13 17 13 9 -1 -22 -43 -42 -30 -19 -3 7 12 9 7 5 3 1 -1 -1 -1 -1 -4 -4 -2 1 1 1 2 2 3 4 4 3 3 7 13 18 21 21 21 19 11 7 5 4 0 0 4 13 16 17 16 11
Height
1576 1575 1574 1573 1572 1571 1570 1569 1568 1567 1566 1565 1564 1563 1562 1561 1560 1559 1559 1558 1557 1557 1556 1555 1554 1554 1552 1551 1550 1549 1548 1547 1545 1544 1543 1542 1541 1540 1539 1539 1538 1537 1536 1535 1534 1533 1532 1530 1527 1524 1521 1520 1520 1521 1522 1523 1523 1523 1523 1522 1522 1522 1521 1522 1522 1522 1521 1521 1521 1521 1521 1521 1521 1521 1521 1521 1521 1521 1520 1520 1520 1519 1519 1519 1519 1519 1519 1519 1519 1519 1519 1519 1519 1519 1519 1519 1519 1519 1519 1520 1520 1520 1521
1575 1574 1574 1573 1571 1570 1569 1568 1567 1566 1565 1564 1563 1562 1561 1560 1559 1559 1558 1557 1557 1556 1555 1554 1554 1553 1551 1550 1549 1548 1546 1545 1544 1543 1542 1541 1540 1539 1538 1538 1537 1536 1535 1534 1532 1531 1530 1529 1525 1522 1519 1519 1520 1520 1521 1521 1521 1521 1521 1520 1520 1521 1521 1521 1521 1520 1520 1519 1519 1519 1519 1519 1519 1519 1519 1519 1519 1519 1519 1519 1519 1518 1518 1517 1517 1517 1517 1517 1517 1517 1517 1517 1517 1517 1517 1517 1517 1518 1518 1518 1518 1519 1519
1575 1574 1573 1572 1571 1570 1569 1568 1567 1566 1565 1564 1563 1562 1561 1559 1559 1558 1557 1556 1556 1555 1554 1554 1553 1552 1550 1549 1548 1546 1545 1544 1543 1542 1541 1540 1539 1538 1537 1536 1536 1534 1534 1532 1531 1530 1529 1526 1523 1519 1518 1519 1520 1520 1520 1519 1519 1518 1518 1518 1519 1519 1520 1520 1520 1519 1519 1518 1518 1518 1518 1518 1518 1518 1518 1518 1518 1518 1518 1517 1517 1517 1516 1516 1515 1515 1515 1515 1515 1515 1515 1515 1515 1515 1515 1515 1515 1515 1516 1516 1516 1517 1517
1575 1574 1573 1572 1571 1569 1569 1568 1567 1565 1564 1564 1563 1562 1560 1559 1558 1558 1557 1556 1555 1554 1554 1552 1551 1550 1549 1548 1546 1545 1544 1543 1541 1540 1539 1539 1538 1537 1536 1535 1534 1533 1532 1531 1529 1528 1527 1524 1520 1518 1517 1518 1519 1519 1519 1518 1517 1516 1515 1516 1517 1518 1519 1519 1519 1518 1517 1517 1516 1516 1516 1516 1516 1516 1516 1516 1516 1516 1517 1516 1516 1515 1515 1514 1514 1513 1513 1513 1513 1513 1513 1513 1513 1513 1513 1513 1514 1514 1514 1514 1514 1515 1515
1574 1573 1572 1571 1570 1569 1568 1567 1566 1565 1564 1563 1562 1561 1560 1559 1558 1557 1556 1555 1554 1554 1552 1551 1550 1549 1548 1546 1545 1544 1543 1541 1540 1539 1539 1538 1536 1535 1535 1534 1533 1532 1530 1529 1528 1527 1525 1522 1519 1517 1517 1518 1518 1518 1517 1516 1516 1515 1514 1514 1514 1516 1517 1518 1518 1517 1516 1515 1515 1515 1515 1515 1515 1515 1515 1515 1515 1515 1515 1515 1514 1514 1513 1513 1512 1512 1511 1511 1511 1511 1511 1511 1511 1511 1511 1511 1512 1512 1512 1512 1512 1513 1514
1574 1573 1572 1571 1570 1569 1568 1567 1566 1565 1564 1563 1562 1561 1560 1559 1558 1557 1556 1555 1554 1553 1551 1550 1549 1548 1546 1545 1544 1543 1542 1540 1539 1539 1538 1536 1535 1534 1533 1533 1531 1530 1529 1528 1527 1525 1524 1520 1518 1517 1517 1517 1516 1516 1515 1515 1514 1513 1512 1512 1512 1513 1515 1516 1516 1515 1515 1514 1513 1513 1513 1514 1514 1514 1514 1514 1514 1514 1514 1514 1513 1512 1511 1511 1511 1510 1510 1509 1509 1509 1509 1509 1509 1509 1509 1509 1509 1510 1510 1510 1510 1511 1511
1574 1573 1572 1571 1570 1569 1568 1567 1566 1565 1564 1563 1562 1561 1560 1559 1558 1557 1555 1554 1553 1552 1551 1550 1548 1547 1546 1544 1543 1542 1540 1539 1539 1538 1537 1535 1534 1534 1532 1531 1530 1529 1528 1526 1525 1524 1522 1519 1517 1517 1516 1516 1515 1514 1514 1513 1513 1512 1511 1511 1511 1512 1513 1514 1514 1514 1513 1512 1512 1512 1512 1512 1512 1512 1512 1512 1512 1512 1512 1512 1512 1511 1510 1509 1509 1509 1508 1508 1507 1507 1507 1507 1507 1507 1507 1508 1508 1508 1508 1508 1508 1509 1509
1574 1573 1572 1571 1570 1569 1568 1567 1566 1565 1564 1563 1562 1560 1559 1558 1557 1556 1555 1554 1552 1551 1550 1549 1548 1546 1545 1544 1542 1541 1539 1539 1538 1537 1536 1535 1534 1532 1531 1530 1529 1528 1526 1525 1523 1522 1520 1518 1516 1516 1515 1514 1514 1513 1512 1512 1511 1511 1510 1510 1510 1510 1510 1511 1512 1512 1511 1511 1511 1510 1510 1510 1510 1510 1510 1510 1510 1510 1510 1510 1510 1509 1509 1508 1507 1507 1506 1506 1505 1505 1505 1505 1504 1505 1505 1505 1505 1506 1506 1506 1506 1507 1508
1574 1573 1572 1571 1570 1569 1568 1567 1566 1565 1564 1563 1561 1560 1559 1558 1557 1555 1554 1553 1552 1550 1549 1548 1547 1545 1544 1543 1541 1540 1539 1538 1537 1536 1535 1534 1533 1531 1530 1529 1527 1526 1525 1523 1522 1520 1519 1517 1515 1514 1513 1512 1512 1511 1510 1510 1509 1509 1509 1509 1509 1509 1509 1509 1509 1509 1509 1509 1509 1509 1509 1509 1509 1509 1509 1508 1508 1508 1508 1508 1508 1508 1507 1507 1506 1505 1504 1504 1504 1503 1503 1503 1503 1503 1503 1503 1503 1504 1504 1504 1505 1505 1506
1574 1573 1572 1571 1570 1569 1568 1567 1566 1564 1563 1562 1561 1560 1559 1557 1556 1555 1554 1552 1551 1550 1549 1547 1546 1544 1543 1542 1541 1539 1538 1537 1536 1535 1534 1533 1532 1530 1529 1528 1526 1525 1524 1522 1520 1519 1518 1516 1514 1513 1512 1511 1510 1509 1509 1508 1508 1507 1507 1507 1508 1508 1507 1507 1507 1507 1507 1507 1507 1507 1507 1507 1507 1507 1507 1506 1506 1506 1506 1506 1506 1506 1506 1505 1504 1504 1503 1502 1502 1501 1501 1501 1500 1500 1500 1500 1501 1501 1502 1502 1503 1504 1504
1574 1573 1572 1571 1570 1569 1568 1566 1565 1564 1563 1562 1560 1559 1558 1557 1555 1554 1553 1552 1550 1549 1548 1547 1545 1544 1543 1541 1540 1539 1538 1537 1536 1534 1533 1532 1531 1529 1528 1527 1525 1524 1522 1520 1519 1518 1516 1514 1513 1512 1510 1509 1509 1508 1507 1506 1505 1506 1506 1506 1506 1506 1506 1505 1505 1505 1505 1505 1505 1505 1505 1505 1505 1505 1505 1504 1504 1504 1504 1504 1504 1504 1504 1504 1503 1502 1501 1500 1500 1499 1499 1499 1499 1499 1499 1499 1499 1499 1500 1500 1501 1501 1502
1573 1572 1571 1570 1569 1568 1567 1566 1565 1564 1563 1561 1560 1559 1558 1556 1555 1554 1552 1551 1550 1549 1547 1546 1544 1543 1542 1541 1539 1538 1537 1536 1535 1534 1533 1531 1530 1529 1527 1526 1524 1523 1521 1519 1518 1517 1515 1513 1512 1510 1509 1508 1507 1506 1505 1504 1504 1504 1504 1504 1505 1505 1504 1504 1504 1504 1504 1504 1504 1504 1504 1503 1503 1503 1503 1503 1503 1503 1503 1503 1502 1502 1502 1502 1501 1501 1499 1499 1498 1498 1497 1497 1497 1497 1497 1497 1497 1497 1497 1498 1499 1499 1500
1573 1572 1571 1570 1569 1568 1567 1566 1564 1563 1562 1561 1560 1559 1557 1556 1555 1554 1552 1551 1549 1548 1547 1545 1544 1543 1541 1540 1539 1538 1537 1535 1534 1533 1532 1530 1529 1528 1526 1524 1523 1521 1520 1518 1517 1515 1514 1512 1510 1509 1508 1507 1506 1505 1504 1503 1502 1502 1502 1503 1503 1503 1503 1503 1502 1502 1502 1502 1502 1502 1502 1501 1501 1501 1501 1501 1501 1501 1501 1501 1500 1500 1500 1500 1499 1499 1498 1497 1496 1496 1495 1495 1495 1495 1495 1495 1494 1495 1495 1495 1496 1497 1497
1572 1571 1570 1569 1568 1567 1566 1565 1564 1563 1562 1560 1559 1558 1557 1555 1554 1553 1552 1550 1549 1548 1546 1545 1543 1542 1540 1539 1538 1537 1536 1535 1534 1533 1531 1530 1528 1527 1525 1524 1522 1520 1519 1517 1515 1514 1512 1511 1509 1508 1507 1505 1504 1504 1503 1502 1501 1500 1501 1501 1501 1501 1501 1501 1501 1501 1500 1500 1500 1500 1500 1499 1499 1499 1499 1499 1499 1499 1499 1499 1498 1498 1498 1498 1497 1496 1496 1495 1494 1494 1494 1493 1493 1493 1493 1493 1493 1493 1493 1493 1494 1494 1495
1572 1570 1569 1569 1567 1566 1565 1564 1563 1562 1561 1559 1558 1557 1556 1555 1554 1552 1551 1549 1548 1547 1545 1544 1543 1541 1540 1538 1537 1536 1535 1534 1533 1532 1531 1529 1528 1526 1525 1523 1521 1520 1518 1516 1514 1513 1511 1510 1509 1507 1506 1504 1503 1502 1501 1501 1500 1499 1500 1500 1499 1499 1499 1499 1499 1499 1499 1499 1499 1498 1498 1498 1497 1497 1497 1497 1497 1496 1496 1496 1496 1496 1495 1495 1494 1494 1494 1493 1493 1492 1492 1491 1491 1491 1491 1491 1491 1491 1491 1491 1491 1492 1493
1571 1569 1569 1568 1566 1565 1564 1563 1562 1561 1560 1559 1557 1556 1555 1554 1552 1551 1550 1549 1547 1546 1545 1543 1542 1540 1539 1537 1536 1535 1534 1533 1532 1531 1530 1529 1527 1526 1524 1523 1521 1519 1517 1515 1514 1512 1511 1509 1508 1506 1505 1504 1502 1501 1500 1499 1499 1499 1499 1499 1499 1498 1498 1498 1498 1498 1497 1497 1497 1496 1496 1496 1495 1495 1495 1495 1494 1494 1494 1494 1493 1493 1493 1493 1492 1492 1491 1491 1491 1490 1490 1489 1489 1489 1489 1489 1489 1489 1489 1489 1489 1489 1490
1569 1569 1567 1566 1565 1564 1563 1562 1561 1559 1558 1557 1556 1554 1553 1552 1551 1550 1549 1547 1546 1545 1544 1542 1541 1539 1538 1537 1535 1534 1533 1532 1531 1530 1529 1528 1527 1525 1524 1522 1520 1519 1517 1515 1513 1512 1510 1509 1507 1505 1504 1503 1501 1500 1499 1498 1498 1498 1498 1497 1497 1497 1497 1497 1497 1496 1495 1495 1494 1494 1494 1494 1494 1493 1493 1493 1492 1492 1492 1491 1491 1491 1491 1490 1490 1489 1489 1489 1489 1488 1488 1488 1487 1487 1487 1487 1487 1487 1487 1487 1487 1487 1488
1568 1567 1566 1565 1564 1563 1561 1560 1559 1558 1557 1555 1554 1553 1552 1551 1549 1548 1547 1546 1544 1543 1542 1541 1539 1538 1537 1536 1534 1533 1531 1530 1529 1528 1527 1527 1525 1524 1523 1521 1520 1518 1516 1514 1513 1511 1510 1508 1506 1505 1503 1502 1500 1499 1498 1497 1496 1496 1496 1496 1496 1495 1495 1495 1495 1494 1494 1493 1493 1492 1492 1491 1491 1491 1491 1490 1490 1489 1489 1489 1488 1488 1488 1488 1488 1487 1487 1486 1486 1486 1486 1485 1485 1485 1485 1485 1485 1485 1485 1485 1485 1485 1485
1567 1566 1564 1563 1562 1561 1559 1558 1557 1556 1554 1553 1552 1551 1550 1549 1548 1547 1545 1544 1543 1542 1540 1539 1538 1537 1536 1534 1533 1531 1530 1529 1528 1526 1525 1525 1524 1523 1521 1520 1519 1517 1515 1514 1513 1511 1509 1508 1506 1504 1503 1501 1499 1498 1496 1495 1494 1494 1494 1494 1494 1494 1494 1494 1493 1493 1492 1491 1490 1490 1489 1489 1489 1488 1488 1488 1487 1487 1486 1485 1485 1484 1484 1484 1484 1484 1484 1484 1484 1483 1483 1483 1483 1483 1483 1483 1483 1483 1483 1483 1483 1483 1483
1565 1564 1563 1561 1560 1559 1557 1556 1555 1554 1552 1551 1550 1549 1548 1547 1546 1545 1544 1542 1541 1540 1539 1537 1536 1535 1534 1533 1531 1530 1529 1527 1526 1525 1524 1523 1522 1521 1519 1518 1517 1516 1514 1513 1512 1510 1509 1507 1505 1504 1502 1500 1499 1497 1495 1494 1493 1493 1493 1492 1492 1492 1492 1491 1491 1490 1489 1489 1488 1488 1487 1487 1486 1486 1485 1484 1484 1483 1483 1482 1481 1481 1481 1481 1481 1481 1481 1481 1481 1481 1481 1481 1481 1480 1480 1480 1480 1480 1480 1480 1480 1481 1481
1564 1562 1561 1559 1558 1557 1555 1554 1552 1551 1549 1548 1547 1546 1545 1544 1543 1542 1541 1540 1539 1538 1537 1535 1534 1533 1531 1530 1529 1528 1527 1526 1524 1523 1522 1521 1520 1519 1518 1517 1516 1514 1513 1512 1511 1509 1508 1506 1505 1503 1501 1499 1498 1496 1494 1493 1492 1491 1491 1490 1490 1490 1489 1489 1489 1488 1487 1486 1486 1485 1484 1484 1484 1483 1482 1481 1481 1480 1479 1479 1478 1478 1478 1478 1478 1478 1478 1478 1478 1478 1478 1479 1479 1479 1478 1478 1478 1478 1478 1478 1478 1478 1479
1562 1560 1559 1557 1556 1554 1553 1552 1550 1549 1547 1546 1545 1544 1543 1541 1540 1539 1539 1538 1537 1536 1535 1533 1532 1531 1529 1528 1527 1526 1525 1524 1523 1521 1520 1519 1519 1518 1517 1515 1514 1513 1512 1510 1509 1508 1507 1505 1504 1502 1500 1499 1497 1495 1493 1492 1491 1490 1489 1489 1488 1487 1487 1486 1486 1485 1484 1484 1483 1483 1482 1481 1481 1480 1479 1479 1478 1477 1476 1476 1475 1475 1475 1475 1475 1475 1475 1475 1476 1476 1476 1476 1476 1476 1476 1476 1476 1476 1476 1476 1476 1476 1476
1560 1559 1557 1556 1554 1553 1551 1550 1549 1547 1546 1545 1543 1542 1541 1540 1539 1537 1536 1535 1534 1534 1533 1531 1530 1529 1528 1527 1526 1524 1523 1522 1521 1520 1519 1518 1517 1516 1515 1514 1513 1512 1510 1509 1508 1507 1505 1504 1502 1501 1499 1498 1496 1494 1492 1491 1490 1489 1488 1487 1486 1485 1484 1484 1483 1482 1482 1481 1480 1480 1479 1478 1478 1477 1477 1476 1476 1475 1474 1474 1473 1473 1473 1473 1472 1472 1473 1473 1473 1474 1474 1474 1474 1474 1474 1474 1474 1474 1474 1474 1474 1474 1474
1559 1557 1556 1554 1553 1551 1550 1549 1547 1546 1545 1544 1542 1541 1540 1539 1537 1536 1535 1534 1533 1532 1531 1530 1529 1528 1527 1526 1525 1524 1523 1521 1520 1519 1518 1516 1515 1514 1514 1513 1511 1510 1509 1508 1507 1505 1504 1503 1501 1499 1498 1496 1494 1493 1491 1489 1488 1487 1486 1485 1484 1483 1482 1481 1480 1479 1479 1478 1478 1477 1476 1475 1475 1474 1474 1474 1473 1472 1472 1471 1471 1470 1470 1470 1470 1470 1470 1470 1471 1471 1471 1471 1471 1471 1471 1471 1471 1471 1471 1471 1472 1472 1472
1557 1556 1554 1553 1551 1550 1549 1548 1546 1545 1544 1543 1541 1540 1539 1538 1537 1535 1534 1533 1531 1530 1529 1529 1528 1527 1526 1525 1524 1523 1522 1520 1519 1518 1517 1515 1514 1513 1512 1511 1510 1509 1507 1506 1505 1504 1502 1501 1499 1498 1496 1494 1493 1491 1489 1488 1487 1485 1484 1483 1481 1480 1479 1478 1477 1476 1476 1475 1474 1474 1473 1473 1472 1472 1471 1471 1470 1470 1469 1469 1469 1468 1468 1468 1468 1468 1468 1468 1468 1468 1468 1469 1469 1469 1469 1469 1469 1469 1469 1469 1469 1469 1469
1556 1554 1553 1552 1550 1549 1548 1547 1545 1544 1543 1542 1540 1539 1538 1537 1536 1534 1533 1532 1531 1529 1528 1527 1526 1525 1524 1524 1523 1521 1520 1519 1518 1517 1515 1514 1513 1511 1510 1509 1508 1507 1506 1504 1503 1502 1501 1499 1498 1496 1494 1493 1491 1489 1488 1486 1485 1484 1482 1481 1479 1478 1477 1476 1474 1474 1473 1472 1471 1471 1470 1470 1469 1469 1469 1468 1468 1467 1467 1466 1466 1465 1465 1465 1465 1465 1465 1465 1465 1465 1465 1465 1465 1466 1466 1466 1466 1466 1466 1466 1467 1467 1467
1554 1553 1552 1550 1549 1548 1547 1545 1544 1543 1542 1541 1539 1539 1537 1536 1535 1534 1533 1531 1530 1529 1528 1526 1525 1524 1523 1522 1521 1520 1519 1518 1517 1515 1514 1513 1511 1510 1509 1507 1506 1505 1504 1503 1502 1500 1499 1498 1496 1495 1493 1491 1489 1488 1486 1484 1483 1482 1480 1479 1478 1476 1475 1474 1472 1471 1470 1469 1469 1468 1468 1467 1467 1466 1466 1465 1465 1464 1464 1464 1463 1463 1462 1462 1462 1462 1463 1463 1463 1463 1463 1463 1463 1463 1463 1464 1464 1464 1464 1464 1464 1464 1465
1553 1552 1551 1549 1548 1547 1546 1544 1543 1542 1541 1540 1539 1538 1537 1535 1534 1533 1532 1530 1529 1528 1527 1525 1524 1523 1522 1521 1520 1519 1517 1516 1515 1514 1513 1511 1510 1509 1507 1506 1505 1504 1503 1501 1500 1499 1497 1496 1495 1493 1492 1490 1488 1486 1484 1483 1481 1480 1479 1477 1475 1474 1473 1471 1470 1469 1468 1467 1466 1466 1465 1464 1464 1463 1463 1462 1462 1462 1461 1461 1460 1460 1460 1459 1459 1460 1460 1460 1460 1460 1460 1460 1460 1460 1461 1461 1461 1461 1461 1461 1462 1462 1462
1552 1551 1550 1549 1547 1546 1545 1544 1543 1541 1540 1539 1538 1537 1535 1534 1533 1532 1531 1529 1528 1527 1526 1525 1524 1522 1521 1520 1518 1517 1516 1515 1514 1513 1512 1510 1509 1507 1506 1505 1504 1502 1501 1500 1498 1497 1496 1494 1493 1492 1490 1489 1487 1485 1483 1481 1479 1478 1476 1475 1474 1472 1470 1469 1467 1466 1465 1464 1464 1463 1463 1462 1461 1460 1460 1459 1459 1459 1458 1458 1458 1457 1457 1457 1457 1457 1457 1457 1457 1458 1458 1458 1458 1458 1459 1459 1459 1459 1459 1459 1459 1459 1460
1551 1550 1549 1548 1546 1545 1544 1543 1542 1540 1539 1538 1537 1536 1534 1534 1532 1531 1530 1529 1527 1526 1525 1524 1523 1521 1520 1519 1517 1516 1514 1514 1512 1511 1510 1509 1508 1506 1505 1504 1502 1501 1499 1498 1497 1495 1494 1493 1491 1490 1489 1487 1485 1484 1482 1479 1478 1476 1474 1473 1471 1470 1468 1467 1465 1464 1463 1462 1461 1460 1460 1459 1458 1457 1457 1456 1456 1456 1455 1455 1454 1454 1454 1454 1454 1454 1454 1454 1454 1455 1455 1455 1455 1456 1456 1456 1456 1457 1457 1457 1457 1457 1458
1550 1549 1548 1547 1545 1544 1543 1542 1541 1540 1539 1537 1536 1535 1534 1533 1532 1530 1529 1528 1527 1525 1524 1523 1522 1520 1519 1518 1516 1515 1514 1512 1511 1510 1509 1508 1507 1505 1504 1502 1501 1499 1498 1497 1495 1494 1493 1491 1490 1489 1487 1486 1484 1482 1480 1478 1476 1474 1473 1471 1469 1468 1466 1464 1463 1462 1460 1459 1459 1458 1457 1456 1455 1454 1454 1454 1453 1452 1452 1452 1451 1451 1451 1451 1451 1451 1451 1451 1451 1452 1452 1452 1453 1453 1453 1454 1454 1454 1454 1454 1455 1455 1455
1549 1548 1547 1546 1545 1544 1542 1541 1540 1539 1538 1537 1536 1534 1533 1532 1531 1530 1528 1527 1526 1525 1523 1522 1521 1519 1518 1517 1515 1514 1513 1511 1510 1509 1507 1506 1505 1504 1503 1501 1500 1498 1497 1495 1494 1493 1491 1490 1489 1487 1486 1484 1483 1481 1479 1477 1475 1473 1471 1469 1467 1466 1464 1462 1461 1459 1458 1457 1456 1455 1454 1453 1452 1451 1451 1450 1450 1449 1449 1449 1448 1448 1448 1448 1448 1448 1448 1449 1449 1449 1449 1450 1450 1450 1450 1451 1451 1451 1451 1452 1452 1452 1452
1548 1547 1546 1545 1544 1543 1541 1540 1539 1538 1537 1536 1535 1534 1533 1531 1530 1529 1528 1527 1525 1524 1523 1522 1520 1519 1518 1516 1514 1513 1512 1511 1509 1508 1506 1505 1504 1503 1501 1500 1499 1497 1496 1494 1493 1492 1490 1489 1487 1486 1484 1483 1481 1479 1478 1476 1474 1471 1469 1467 1466 1464 1462 1460 1459 1457 1456 1454 1453 1452 1451 1450 1449 1448 1448 1447 1447 1446 1446 1446 1445 1445 1445 1445 1445 1445 1446 1446 1446 1447 1447 1447 1448 1448 1448 1448 1449 1449 1449 1449 1449 1449 1449
1547 1546 1545 1544 1543 1542 1541 1539 1539 1538 1536 1535 1534 1533 1532 1531 1529 1528 1527 1526 1525 1524 1522 1521 1519 1518 1517 1515 1514 1513 1511 1510 1509 1507 1505 1504 1503 1502 1500 1499 1498 1496 1494 1493 1492 1490 1489 1488 1486 1484 1483 1481 1480 1478 1476 1474 1472 1470 1468 1466 1464 1462 1460 1459 1457 1455 1454 1452 1450 1449 1448 1447 1446 1445 1445 1444 1444 1443 1443 1443 1443 1442 1442 1442 1442 1443 1443 1443 1444 1444 1445 1445 1445 1445 1445 1446 1446 1446 1446 1446 1447 1447 1446
1547 1545 1544 1543 1542 1541 1540 1539 1538 1537 1535 1534 1533 1532 1531 1530 1529 1527 1526 1525 1524 1523 1521 1520 1519 1517 1516 1515 1514 1512 1511 1509 1508 1507 1505 1504 1502 1501 1499 1498 1496 1495 1494 1492 1491 1489 1488 1486 1485 1483 1481 1480 1478 1476 1475 1473 1471 1469 1466 1464 1462 1460 1458 1457 1455 1453 1451 1449 1448 1447 1446 1444 1444 1443 1442 1442 1441 1441 1440 1440 1439 1439 1439 1439 1439 1440 1440 1440 1441 1441 1442 1442 1442 1442 1443 1443 1443 1443 1443 1443 1444 1444 1444
1546 1545 1544 1542 1541 1540 1539 1538 1537 1536 1535 1534 1533 1531 1530 1529 1528 1527 1525 1524 1523 1522 1520 1519 1518 1516 1515 1513 1512 1511 1509 1508 1507 1506 1504 1503 1501 1500 1499 1497 1496 1494 1493 1491 1489 1488 1486 1485 1483 1482 1480 1478 1476 1475 1473 1471 1469 1467 1465 1463 1460 1459 1456 1454 1452 1450 1449 1447 1446 1444 1444 1442 1441 1440 1440 1439 1439 1438 1438 1437 1437 1437 1437 1437 1437 1437 1437 1438 1438 1438 1438 1439 1439 1439 1439 1439 1439 1440 1440 1440 1440 1441 1441
1545 1544 1543 1542 1540 1539 1538 1537 1536 1535 1534 1533 1532 1530 1529 1528 1527 1526 1524 1523 1522 1520 1519 1518 1517 1515 1514 1512 1511 1509 1508 1507 1506 1504 1503 1502 1500 1499 1498 1496 1495 1493 1492 1490 1488 1487 1485 1483 1482 1480 1479 1477 1475 1473 1471 1469 1468 1466 1464 1461 1459 1457 1455 1452 1450 1448 1446 1445 1444 1442 1441 1440 1439 1438 1437 1437 1436 1436 1435 1435 1434 1434 1434 1434 1434 1434 1435 1435 1435 1435 1435 1436 1436 1435 1435 1436 1436 1437 1437 1437 1438 1438 1438
1544 1543 1542 1541 1540 1539 1538 1536 1535 1534 1533 1532 1531 1530 1529 1527 1526 1525 1524 1522 1521 1519 1518 1517 1515 1514 1513 1512 1510 1509 1508 1506 1505 1503 1502 1501 1499 1498 1497 1495 1494 1492 1491 1489 1487 1485 1484 1482 1480 1479 1477 1475 1474 1472 1470 1468 1466 1464 1462 1460 1458 1456 1454 1451 1449 1446 1444 1443 1441 1440 1439 1438 1437 1436 1435 1434 1434 1433 1433 1432 1432 1432 1431 1431 1432 1432 1432 1432 1433 1433 1432 1433 1432 1432 1432 1433 1433 1433 1434 1434 1434 1433 1434
1543 1542 1541 1540 1539 1538 1537 1535 1534 1533 1532 1531 1530 1529 1528 1526 1525 1524 1523 1521 1520 1519 1517 1515 1514 1513 1512 1511 1509 1508 1507 1506 1504 1503 1501 1500 1499 1497 1496 1494 1493 1491 1489 1488 1486 1484 1483 1481 1479 1477 1476 1474 1472 1470 1468 1466 1464 1463 1461 1459 1457 1454 1452 1450 1447 1445 1443 1441 1439 1438 1437 1436 1435 1434 1433 1431 1431 1430 1430 1430 1430 1429 1429 1429 1429 1429 1430 1430 1430 1430 1430 1429 1429 1429 1429 1429 1429 1430 1430 1431 1430 1429 1430
1542 1541 1540 1539 1538 1537 1536 1534 1534 1533 1531 1530 1529 1528 1527 1526 1524 1523 1522 1520 1519 1518 1517 1515 1513 1512 1510 1509 1508 1507 1506 1505 1504 1502 1501 1499 1498 1496 1495 1494 1492 1490 1488 1487 1485 1483 1481 1479 1478 1476 1474 1473 1471 1469 1467 1465 1463 1461 1459 1458 1455 1453 1451 1448 1446 1444 1442 1440 1438 1436 1435 1434 1433 1431 1430 1429 1428 1428 1427 1427 1427 1427 1427 1427 1426 1426 1427 1428 1428 1427 1427 1426 1426 1426 1426 1425 1426 1427 1427 1427 1426 1426 1427
1541 1540 1539 1538 1537 1536 1534 1534 1533 1531 1530 1529 1529 1528 1526 1525 1524 1522 1521 1519 1518 1517 1516 1515 1513 1511 1509 1509 1507 1506 1504 1504 1503 1501 1499 1499 1497 1496 1494 1493 1491 1489 1487 1485 1484 1482 1480 1478 1476 1474 1473 1471 1469 1467 1465 1463 1462 1460 1458 1456 1454 1452 1449 1447 1445 1443 1441 1439 1437 1435 1433 1432 1430 1429 1428 1427 1426 1425 1424 1424 1424 1424 1424 1424 1424 1424 1424 1425 1425 1424 1424 1424 1423 1422 1422 1422 1422 1423 1422 1422 1422 1422 1424
1540 1539 1538 1537 1536 1535 1534 1533 1531 1530 1529 1529 1528 1527 1525 1524 1523 1522 1520 1519 1517 1516 1515 1514 1513 1511 1509 1508 1506 1505 1504 1502 1501 1500 1499 1497 1496 1495 1493 1491 1489 1488 1486 1484 1483 1481 1479 1477 1475 1473 1471 1469 1468 1466 1464 1462 1460 1458 1456 1454 1452 1450 1448 1446 1444 1442 1440 1438 1435 1433 1431 1430 1428 1427 1426 1424 1424 1423 1422 1421 1420 1419 1419 1420 1421 1422 1422 1422 1422 1422 1421 1420 1420 1419 1419 1419 1419 1419 1419 1419 1419 1420 1422
1539 1538 1537 1536 1535 1534 1533 1532 1530 1529 1529 1528 1526 1525 1524 1523 1522 1521 1519 1518 1517 1515 1514 1514 1513 1511 1509 1507 1506 1504 1503 1501 1500 1499 1498 1496 1495 1493 1492 1490 1489 1487 1485 1484 1482 1480 1478 1476 1474 1472 1470 1468 1466 1464 1462 1460 1458 1456 1454 1452 1450 1449 1447 1445 1443 1440 1438 1436 1434 1432 1430 1428 1427 1425 1424 1422 1421 1420 1419 1418 1417 1416 1416 1417 1418 1419 1419 1419 1419 1419 1419 1417 1416 1416 1415 1415 1415 1416 1417 1417 1419 1419 1421
1538 1537 1536 1535 1534 1533 1532 1531 1529 1529 1528 1526 1525 1524 1524 1522 1521 1520 1519 1518 1516 1514 1513 1512 1512 1510 1509 1507 1505 1504 1502 1501 1499 1498 1497 1495 1494 1492 1490 1489 1487 1486 1484 1482 1480 1479 1476 1474 1472 1470 1469 1467 1465 1463 1460 1459 1457 1455 1453 1451 1449 1447 1445 1443 1441 1439 1437 1434 1432 1430 1429 1427 1425 1424 1422 1420 1419 1418 1417 1415 1415 1414 1414 1414 1415 1416 1417 1417 1416 1416 1415 1414 1413 1412 1412 1412 1413 1414 1416 1417 1418 1419 1420
1537 1536 1535 1534 1533 1532 1531 1529 1529 1528 1526 1525 1524 1523 1522 1521 1520 1519 1518 1517 1516 1514 1513 1511 1510 1509 1509 1507 1505 1503 1502 1501 1499 1497 1496 1494 1493 1491 1490 1488 1486 1485 1483 1481 1479 1477 1475 1473 1471 1469 1467 1465 1464 1461 1459 1457 1455 1454 1452 1450 1448 1445 1443 1441 1439 1437 1435 1433 1431 1429 1427 1425 1424 1422 1420 1418 1417 1415 1414 1413 1413 1412 1412 1412 1413 1413 1413 1413 1413 1412 1411 1410 1410 1410 1410 1411 1412 1414 1415 1416 1417 1418 1419
1536 1535 1534 1533 1532 1531 1530 1529 1528 1526 1525 1524 1523 1522 1521 1520 1519 1518 1517 1516 1515 1514 1512 1510 1509 1508 1507 1506 1505 1503 1502 1500 1499 1497 1495 1494 1492 1490 1489 1487 1486 1484 1482 1479 1478 1475 1474 1472 1470 1468 1466 1464 1462 1460 1458 1456 1454 1453 1450 1448 1446 1444 1442 1439 1438 1435 1433 1431 1429 1427 1426 1424 1423 1421 1419 1417 1415 1414 1412 1411 1410 1410 1409 1408 1408 1409 1409 1409 1408 1408 1408 1408 1408 1408 1409 1410 1411 1413 1414 1415 1416 1417 1418
1535 1534 1533 1532 1531 1529 1529 1528 1526 1525 1524 1523 1522 1521 1520 1519 1518 1517 1516 1515 1514 1512 1511 1509 1508 1506 1505 1505 1504 1503 1501 1499 1498 1496 1494 1493 1491 1490 1488 1486 1484 1483 1481 1478 1476 1474 1472 1470 1469 1467 1465 1463 1461 1459 1457 1455 1453 1451 1449 1447 1445 1443 1440 1438 1436 1434 1432 1430 1428 1426 1424 1423 1421 1419 1418 1416 1414 1413 1411 1410 1409 1408 1407 1406 1405 1405 1405 1405 1404 1405 1405 1406 1406 1407 1408 1409 1409 1411 1412 1413 1413 1414 1415
1534 1533 1532 1531 1529 1529 1527 1526 1525 1524 1523 1522 1521 1520 1519 1518 1517 1516 1515 1514 1513 1512 1510 1509 1507 1505 1504 1503 1502 1501 1500 1499 1497 1496 1494 1492 1490 1489 1488 1485 1483 1481 1479 1477 1475 1473 1471 1469 1467 1465 1464 1462 1460 1458 1456 1454 1452 1450 1448 1445 1443 1441 1439 1437 1434 1432 1430 1428 1426 1424 1423 1421 1420 1418 1417 1415 1414 1412 1410 1409 1407 1406 1405 1404 1404 1404 1403 1403 1403 1403 1404 1404 1404 1405 1405 1406 1407 1408 1409 1409 1411 1411 1412
1533 1532 1531 1530 1529 1527 1526 1525 1524 1523 1522 1521 1520 1519 1518 1517 1517 1516 1515 1514 1513 1511 1510 1509 1508 1506 1503 1501 1500 1500 1499 1498 1496 1495 1494 1492 1489 1487 1485 1484 1482 1479 1478 1476 1474 1472 1470 1468 1466 1464 1463 1461 1459 1457 1455 1453 1451 1449 1446 1444 1442 1439 1437 1435 1433 1431 1429 1427 1425 1423 1422 1420 1419 1417 1416 1414 1412 1411 1409 1408 1406 1405 1404 1403 1403 1402 1402 1402 1402 1402 1402 1402 1403 1403 1404 1404 1405 1406 1406 1407 1408 1408 1409
1532 1531 1529 1529 1527 1526 1525 1524 1523 1522 1521 1520 1519 1519 1518 1517 1516 1515 1514 1513 1512 1511 1509 1508 1507 1506 1504 1501 1499 1499 1498 1497 1496 1494 1493 1492 1490 1487 1484 1482 1480 1479 1477 1475 1473 1471 1469 1467 1465 1463 1462 1460 1458 1456 1454 1452 1449 1447 1445 1443 1440 1438 1436 1434 1431 1429 1427 1425 1423 1422 1420 1419 1418 1416 1414 1413 1411 1410 1409 1407 1406 1404 1403 1402 1401 1401 1401 1401 1401 1401 1401 1401 1401 1402 1402 1403 1404 1404 1405 1406 1406 1406 1406
1531 1530 1529 1527 1526 1525 1524 1523 1522 1521 1520 1519 1518 1518 1517 1516 1515 1514 1514 1512 1511 1510 1509 1507 1506 1505 1504 1502 1500 1498 1497 1496 1495 1494 1493 1491 1491 1489 1486 1483 1480 1477 1475 1473 1471 1469 1468 1466 1464 1462 1461 1459 1457 1454 1452 1450 1448 1446 1444 1441 1439 1437 1434 1432 1430 1428 1426 1424 1422 1420 1419 1418 1417 1415 1413 1411 1410 1409 1408 1406 1405 1404 1403 1402 1401 1400 1400 1400 1400 1400 1400 1400 1401 1401 1402 1402 1403 1404 1404 1404 1404 1405 1405
1530 1529 1527 1526 1525 1524 1523 1522 1521 1520 1519 1518 1517 1516 1516 1515 1514 1514 1513 1512 1511 1510 1509 1507 1505 1503 1502 1501 1499 1498 1497 1496 1495 1495 1494 1492 1490 1489 1487 1484 1481 1478 1474 1471 1469 1467 1466 1464 1462 1460 1458 1456 1454 1453 1451 1449 1447 1444 1442 1440 1438 1435 1433 1431 1429 1427 1425 1423 1421 1419 1418 1416 1415 1413 1412 1410 1409 1408 1407 1406 1405 1404 1403 1402 1401 1400 1400 1399 1399 1400 1400 1400 1400 1400 1401 1401 1401 1402 1402 1402 1403 1403 1403
1529 1527 1526 1525 1524 1523 1522 1521 1520 1519 1518 1517 1516 1515 1514 1514 1514 1513 1512 1511 1510 1509 1508 1507 1505 1503 1501 1500 1499 1497 1496 1496 1495 1494 1494 1492 1489 1487 1486 1485 1483 1479 1477 1474 1469 1466 1464 1463 1460 1457 1455 1454 1453 1451 1449 1448 1445 1443 1441 1439 1436 1434 1432 1430 1428 1426 1424 1422 1420 1418 1416 1414 1413 1412 1410 1409 1408 1406 1405 1405 1404 1403 1402 1401 1400 1399 1399 1399 1399 1399 1399 1399 1399 1399 1399 1399 1400 1400 1400 1401 1401 1401 1401
1527 1526 1525 1524 1523 1522 1521 1520 1519 1518 1517 1516 1515 1514 1514 1513 1512 1512 1511 1510 1509 1508 1507 1506 1505 1504 1501 1499 1498 1496 1495 1495 1494 1494 1493 1492 1490 1488 1486 1485 1483 1481 1479 1477 1473 1468 1464 1463 1461 1457 1453 1452 1451 1449 1448 1446 1444 1442 1440 1438 1435 1433 1431 1429 1427 1425 1423 1420 1419 1416 1414 1413 1411 1410 1409 1407 1406 1405 1404 1404 1403 1402 1401 1400 1399 1399 1398 1398 1398 1398 1398 1397 1397 1397 1397 1398 1398 1398 1399 1399 1399 1399 1399
1526 1525 1524 1523 1522 1521 1520 1519 1518 1517 1516 1515 1514 1514 1513 1512 1511 1511 1510 1509 1509 1508 1506 1505 1504 1503 1501 1499 1497 1496 1494 1494 1493 1493 1492 1491 1491 1489 1487 1484 1482 1480 1478 1476 1474 1471 1467 1464 1462 1458 1453 1451 1450 1448 1446 1444 1443 1441 1439 1437 1435 1433 1430 1428 1426 1424 1421 1419 1417 1415 1413 1411 1409 1408 1407 1406 1405 1404 1403 1402 1401 1401 1400 1399 1399 1398 1398 1397 1397 1397 1396 1396 1396 1396 1396 1396 1396 1397 1397 1398 1398 1398 1399
1525 1524 1523 1522 1521 1520 1519 1518 1517 1516 1515 1514 1514 1513 1512 1511 1510 1510 1509 1509 1508 1507 1506 1504 1503 1502 1501 1499 1497 1495 1494 1492 1492 1492 1491 1490 1489 1489 1488 1486 1483 1480 1477 1475 1473 1471 1469 1466 1462 1458 1453 1451 1449 1447 1444 1443 1441 1440 1438 1436 1434 1432 1429 1427 1424 1422 1420 1418 1416 1414 1412 1410 1408 1407 1405 1404 1404 1402 1402 1401 1400 1399 1399 1398 1398 1397 1397 1396 1396 1396 1395 1395 1395 1395 1395 1395 1395 1395 1396 1397 1397 1398 1398
1524 1523 1522 1520 1519 1519 1518 1517 1516 1515 1514 1513 1513 1512 1511 1510 1509 1509 1508 1507 1507 1506 1505 1504 1503 1501 1500 1499 1497 1495 1493 1491 1490 1490 1490 1489 1488 1487 1486 1486 1484 1483 1481 1477 1474 1470 1468 1467 1464 1460 1453 1450 1448 1446 1444 1442 1440 1439 1437 1435 1433 1431 1429 1426 1424 1421 1419 1416 1414 1413 1411 1409 1408 1406 1404 1403 1402 1401 1400 1399 1399 1398 1398 1397 1397 1396 1396 1395 1395 1395 1394 1394 1394 1394 1394 1394 1394 1394 1395 1396 1396 1397 1397
1523 1522 1521 1519 1519 1517 1516 1516 1515 1514 1513 1512 1511 1511 1510 1509 1509 1508 1507 1506 1505 1505 1504 1503 1502 1500 1499 1498 1497 1495 1493 1491 1489 1488 1488 1487 1486 1485 1484 1484 1483 1482 1480 1479 1476 1472 1469 1466 1464 1462 1456 1450 1446 1444 1442 1440 1439 1436 1435 1433 1431 1429 1427 1425 1423 1420 1418 1415 1414 1412 1410 1408 1407 1405 1404 1402 1401 1400 1399 1399 1398 1397 1397 1396 1396 1395 1395 1394 1394 1394 1393 1393 1393 1392 1392 1392 1392 1393 1394 1394 1394 1395 1395
1522 1520 1519 1519 1517 1516 1515 1514 1514 1513 1512 1511 1510 1509 1509 1508 1508 1507 1506 1505 1504 1504 1503 1502 1501 1499 1498 1497 1495 1494 1492 1490 1489 1488 1486 1485 1484 1484 1483 1482 1481 1480 1478 1477 1475 1473 1470 1468 1464 1461 1458 1453 1446 1441 1439 1438 1437 1435 1433 1431 1429 1428 1426 1424 1421 1419 1417 1414 1413 1411 1409 1407 1406 1404 1403 1402 1400 1399 1399 1398 1397 1396 1396 1395 1395 1394 1394 1394 1393 1392 1392 1392 1391 1391 1391 1391 1391 1391 1392 1392 1392 1393 1392
1520 1519 1518 1517 1516 1515 1514 1513 1513 1512 1511 1510 1509 1509 1508 1507 1506 1506 1505 1504 1504 1503 1502 1501 1499 1499 1497 1496 1494 1493 1491 1489 1488 1487 1486 1484 1483 1482 1481 1480 1479 1478 1476 1474 1473 1471 1470 1468 1465 1462 1459 1455 1451 1445 1439 1435 1433 1433 1431 1429 1427 1425 1424 1422 1420 1418 1416 1414 1412 1410 1408 1406 1405 1404 1402 1401 1400 1399 1398 1397 1396 1396 1395 1394 1394 1394 1393 1392 1391 1391 1390 1390 1390 1390 1390 1390 1390 1389 1389 1390 1390 1389 1389
1519 1518 1517 1516 1515 1514 1513 1512 1511 1511 1510 1509 1508 1508 1507 1506 1505 1504 1504 1503 1502 1501 1500 1499 1498 1497 1496 1495 1494 1492 1490 1489 1487 1486 1485 1484 1482 1480 1480 1479 1477 1475 1474 1472 1471 1469 1468 1466 1464 1462 1460 1457 1453 1449 1444 1437 1433 1430 1428 1426 1424 1423 1421 1420 1419 1417 1415 1413 1411 1409 1407 1405 1404 1403 1401 1400 1399 1398 1397 1396 1395 1395 1394 1394 1393 1392 1391 1390 1389 1388 1388 1389 1389 1389 1389 1389 1389 1388 1387 1387 1387 1387 1386